KP4NTS Weather Reports


time (UTC)temp
C
wind
direction
speed
KPH
gust
KPH
rain 1hr
cm
rain 24hr
cm
rain mn
cm
humidity
%
barometer
mb
20260505140235 -17 148 17.7 22.5 0.00 0.00 0.00 1021.4
20260505130159 -17 166 4.8 6.4 0.00 0.00 0.00 1021.1
20260505124649 -17 85 3.2 4.8 0.00 0.00 0.00 1020.9
20260505124146 -17 115 9.7 11.3 0.00 0.00 0.00 1020.9
20260505123641 -17 130 6.4 9.7 0.00 0.00 0.00 1020.9
20260505123139 -17 132 4.8 4.8 0.00 0.00 0.00 1021.0
20260505122634 -17 97 1.6 3.2 0.00 0.00 0.00 1020.7
20260505122132 -17 121 6.4 9.7 0.00 0.00 0.00 1020.7
20260505121623 -17 159 3.2 3.2 0.00 0.00 0.00 1020.9
20260505121120 -17 102 1.6 3.2 0.00 0.00 0.00 1020.8
20260505120615 -17 118 4.8 4.8 0.00 0.00 0.00 1020.8
20260505120111 -17 99 1.6 3.2 0.00 0.00 0.00 1020.7
20260505115607 -17 117 6.4 9.7 0.00 0.00 0.00 1020.5
20260505115104 -17 121 1.6 1.6 0.00 0.00 0.00 1020.6
20260505114600 -17 147 3.2 4.8 0.00 0.00 0.00 1020.5
20260505114056 -17 140 1.6 1.6 0.00 0.00 0.00 1020.5
20260505113553 -17 83 1.6 3.2 0.00 0.00 0.00 1020.6
20260505113050 -17 103 4.8 4.8 0.00 0.00 0.00 1020.4
20260505112546 -17 107 1.6 1.6 0.00 0.00 0.00 1020.4
20260505112045 -17 144 1.6 1.6 0.00 0.00 0.00 1020.4
20260505111538 -17 163 0.0 1.6 0.00 0.00 0.00 1020.3
20260505111034 -17 216 0.0 0.0 0.00 0.00 0.00 1020.3
20260505110526 -17 216 0.0 0.0 0.00 0.00 0.00 1020.3
20260505101952 -17 139 3.2 3.2 0.00 0.00 0.00 1020.1
20260505101450 -17 122 1.6 3.2 0.00 0.00 0.00 1019.6
20260505100946 -17 159 1.6 3.2 0.00 0.00 0.00 1019.7
20260505100444 -17 99 0.0 0.0 0.00 0.00 0.00 1019.6
20260505095939 -17 100 0.0 0.0 0.00 0.00 0.00 1019.5
20260505095436 -17 99 1.6 1.6 0.00 0.00 0.00 1019.3
20260505094932 -17 165 1.6 3.2 0.00 0.00 0.00 1019.5
20260505094429 -17 179 3.2 3.2 0.00 0.00 0.00 1019.3
20260505093926 -17 195 3.2 4.8 0.00 0.00 0.00 1019.5
20260505093422 -17 196 3.2 3.2 0.00 0.00 0.00 1019.5
20260505092920 -17 100 1.6 1.6 0.00 0.00 0.00 1019.3
20260505092418 -17 100 0.0 0.0 0.00 0.00 0.00 1019.5
20260505091915 -17 99 0.0 1.6 0.00 0.00 0.00 1019.5
20260505091412 -17 99 0.0 0.0 0.00 0.00 0.00 1019.3
20260505090910 -17 99 0.0 0.0 0.00 0.00 0.00 1019.6
20260505090408 -17 99 0.0 0.0 0.00 0.00 0.00 1019.4
20260505085905 -17 99 0.0 0.0 0.00 0.00 0.00 1019.5
20260505085403 -17 175 0.0 0.0 0.00 0.00 0.00 1019.4
20260505084901 -17 175 0.0 0.0 0.00 0.00 0.00 1019.2
20260505084359 -17 175 0.0 0.0 0.00 0.00 0.00 1019.4
20260505083856 -17 176 1.6 1.6 0.00 0.00 0.00 1019.2
20260505083354 -17 175 1.6 1.6 0.00 0.00 0.00 1019.2
20260505082850 -17 206 1.6 1.6 0.00 0.00 0.00 1019.3
20260505082346 -17 182 1.6 1.6 0.00 0.00 0.00 1019.1
20260505081843 -17 90 0.0 1.6 0.00 0.00 0.00 1019.2
20260505081339 -17 90 0.0 0.0 0.00 0.00 0.00 1019.3
20260505080836 -17 90 0.0 0.0 0.00 0.00 0.00 1019.2
20260505080332 -17 90 0.0 0.0 0.00 0.00 0.00 1019.1
20260505075827 -17 90 1.6 1.6 0.00 0.00 0.00 1018.9
20260505075325 -17 90 1.6 1.6 0.00 0.00 0.00 1018.9
20260505074822 -17 89 0.0 1.6 0.00 0.00 0.00 1019.0
20260505074319 -17 89 0.0 0.0 0.00 0.00 0.00 1019.0
20260505073817 -17 89 0.0 0.0 0.00 0.00 0.00 1019.0
20260505073315 -17 89 0.0 0.0 0.00 0.00 0.00 1019.1
20260505072811 -17 89 0.0 0.0 0.00 0.00 0.00 1019.0
20260505072307 -17 89 0.0 0.0 0.00 0.00 0.00 1018.7
20260505071803 -17 89 0.0 0.0 0.00 0.00 0.00 1019.2
20260505071300 -17 89 0.0 0.0 0.00 0.00 0.00 1019.1
20260505070758 -17 89 0.0 0.0 0.00 0.00 0.00 1019.2
20260505070254 -17 89 0.0 0.0 0.00 0.00 0.00 1019.0
20260505065749 -17 89 0.0 1.6 0.00 0.00 0.00 1019.2
20260505065246 -17 89 0.0 0.0 0.00 0.00 0.00 1019.3
20260505064744 -17 89 0.0 0.0 0.00 0.00 0.00 1019.0
20260505064241 -17 89 0.0 0.0 0.00 0.00 0.00 1019.2
20260505063738 -17 89 0.0 0.0 0.00 0.00 0.00 1019.5
20260505063235 -17 89 0.0 1.6 0.00 0.00 0.00 1019.2
20260505062731 -17 89 1.6 3.2 0.00 0.00 0.00 1019.1
20260505062229 -17 81 3.2 3.2 0.00 0.00 0.00 1019.4
20260505061725 -17 100 0.0 1.6 0.00 0.00 0.00 1019.4
20260505061224 -17 101 1.6 3.2 0.00 0.00 0.00 1019.4
20260505060721 -17 121 3.2 3.2 0.00 0.00 0.00 1019.5
20260505060218 -17 104 3.2 3.2 0.00 0.00 0.00 1019.5
20260505055713 -17 97 3.2 3.2 0.00 0.00 0.00 1019.4
20260505055210 -17 116 1.6 1.6 0.00 0.00 0.00 1019.4
20260505054707 -17 190 1.6 1.6 0.00 0.00 0.00 1019.6
20260505054205 -17 172 1.6 1.6 0.00 0.00 0.00 1019.6
20260505053703 -17 198 0.0 0.0 0.00 0.00 0.00 1019.7
20260505053159 -17 217 1.6 1.6 0.00 0.00 0.00 1019.8
20260505052655 -17 235 0.0 0.0 0.00 0.00 0.00 1019.9
20260505052153 -17 201 1.6 1.6 0.00 0.00 0.00 1020.0
20260505051649 -17 188 3.2 3.2 0.00 0.00 0.00 1019.9
20260505051147 -17 188 1.6 1.6 0.00 0.00 0.00 1019.9
20260505050645 -17 187 0.0 0.0 0.00 0.00 0.00 1020.0
20260505050143 -17 187 1.6 1.6 0.00 0.00 0.00 1020.1
20260505041613 -17 118 1.6 1.6 0.00 0.00 0.00 1020.4
20260505041111 -17 125 3.2 3.2 0.00 0.00 0.00 1020.4
20260505040608 -17 137 3.2 3.2 0.00 0.00 0.00 1020.3
20260505040105 -17 120 3.2 3.2 0.00 0.00 0.00 1020.5
20260505035601 -17 144 3.2 3.2 0.00 0.00 0.00 1020.8
20260505035057 -17 128 3.2 4.8 0.00 0.00 0.00 1020.8
20260505034554 -17 108 1.6 1.6 0.00 0.00 0.00 1021.0
20260505034051 -17 103 3.2 3.2 0.00 0.00 0.00 1021.0
20260505033548 -17 121 1.6 3.2 0.00 0.00 0.00 1020.9
20260505033046 -17 79 1.6 1.6 0.00 0.00 0.00 1021.1
20260505032544 -17 105 3.2 3.2 0.00 0.00 0.00 1021.4
20260505032040 -17 73 0.0 0.0 0.00 0.00 0.00 1020.9
20260505031537 -17 71 4.8 4.8 0.00 0.00 0.00 1021.0
20260505031033 -17 100 4.8 6.4 0.00 0.00 0.00 1020.9
20260505030531 -17 94 6.4 6.4 0.00 0.00 0.00 1021.0
20260505030027 -17 64 6.4 6.4 0.00 0.00 0.00 1021.1
20260505025522 -17 80 3.2 3.2 0.00 0.00 0.00 1020.9
20260505025021 -17 76 1.6 1.6 0.00 0.00 0.00 1021.0
20260505024518 -17 104 4.8 4.8 0.00 0.00 0.00 1020.9
20260505024015 -17 66 1.6 3.2 0.00 0.00 0.00 1021.0
20260505023512 -17 120 3.2 4.8 0.00 0.00 0.00 1020.8
20260505023010 -17 100 1.6 3.2 0.00 0.00 0.00 1021.0
20260505022508 -17 89 3.2 3.2 0.00 0.00 0.00 1020.8
20260505022004 -17 93 1.6 1.6 0.00 0.00 0.00 1020.9
20260505021501 -17 104 3.2 3.2 0.00 0.00 0.00 1020.9
20260505020956 -17 103 0.0 1.6 0.00 0.00 0.00 1020.8
20260505020452 -17 66 3.2 4.8 0.00 0.00 0.00 1021.0
20260505015949 -17 73 4.8 4.8 0.00 0.00 0.00 1020.9
20260505015446 -17 58 6.4 6.4 0.00 0.00 0.00 1021.0
20260505014943 -17 98 1.6 3.2 0.00 0.00 0.00 1020.9
20260505014440 -17 106 3.2 3.2 0.00 0.00 0.00 1020.7
20260505013937 -17 108 3.2 3.2 0.00 0.00 0.00 1020.8
20260505013434 -17 143 3.2 3.2 0.00 0.00 0.00 1020.8
20260505012932 -17 92 3.2 3.2 0.00 0.00 0.00 1020.7
20260505012429 -17 94 3.2 3.2 0.00 0.00 0.00 1020.8
20260505011925 -17 98 4.8 4.8 0.00 0.00 0.00 1020.5
20260505011422 -17 115 4.8 4.8 0.00 0.00 0.00 1020.5
20260505010919 -17 81 3.2 3.2 0.00 0.00 0.00 1020.3
20260505010414 -17 87 3.2 3.2 0.00 0.00 0.00 1020.4
20260505005910 -17 112 4.8 4.8 0.00 0.00 0.00 1020.4
20260505005408 -17 93 8.0 9.7 0.00 0.00 0.00 1020.4
20260505004905 -17 85 4.8 4.8 0.00 0.00 0.00 1020.4
20260505004401 -17 94 6.4 6.4 0.00 0.00 0.00 1020.2
20260505003858 -17 81 1.6 1.6 0.00 0.00 0.00 1020.3
20260505003356 -17 159 3.2 3.2 0.00 0.00 0.00 1020.2
20260505002852 -17 133 8.0 11.3 0.00 0.00 0.00 1020.2
20260505002348 -17 159 6.4 9.7 0.00 0.00 0.00 1020.1
20260505001847 -17 109 4.8 4.8 0.00 0.00 0.00 1020.0
20260505001344 -17 93 6.4 9.7 0.00 0.00 0.00 1020.4
20260505000841 -17 117 8.0 9.7 0.00 0.00 0.00 1020.5
20260505000338 -17 98 1.6 3.2 0.00 0.00 0.00 1020.4
20260504235835 -17 112 4.8 4.8 0.00 0.00 0.00 1020.5
20260504235332 -17 140 4.8 4.8 0.00 0.00 0.00 1020.4
20260504234829 -17 120 3.2 4.8 0.00 0.00 0.00 1020.6
20260504234327 -17 105 4.8 4.8 0.00 0.00 0.00 1020.5
20260504233823 -17 115 3.2 3.2 0.00 0.00 0.00 1020.5
20260504233318 -17 162 4.8 4.8 0.00 0.00 0.00 1020.5
20260504232815 -17 166 3.2 4.8 0.00 0.00 0.00 1020.2
20260504232313 -17 164 11.3 12.9 0.00 0.00 0.00 1020.2
20260504231809 -17 174 9.7 11.3 0.00 0.00 0.00 1020.1
20260504231306 -17 128 11.3 12.9 0.00 0.00 0.00 1020.0
20260504230801 -17 170 14.5 14.5 0.00 0.00 0.00 1020.1
20260504230300 -17 136 12.9 16.1 0.00 0.00 0.00 1019.9
20260504225759 -17 142 12.9 14.5 0.00 0.00 0.00 1019.8
20260504225254 -17 181 11.3 12.9 0.00 0.00 0.00 1020.0
20260504224752 -17 143 12.9 16.1 0.00 0.00 0.00 1019.9
20260504224249 -17 152 8.0 9.7 0.00 0.00 0.00 1019.7
20260504223745 -17 143 11.3 14.5 0.00 0.00 0.00 1019.8
20260504223241 -17 130 14.5 16.1 0.00 0.00 0.00 1019.6
20260504222738 -17 144 17.7 20.9 0.00 0.00 0.00 1019.5
20260504222235 -17 141 14.5 17.7 0.00 0.00 0.00 1019.6
20260504221732 -17 148 12.9 12.9 0.00 0.00 0.00 1019.4
20260504221230 -17 192 12.9 14.5 0.00 0.00 0.00 1019.3
20260504220726 -17 169 16.1 17.7 0.00 0.00 0.00 1019.5
20260504220224 -17 115 19.3 22.5 0.00 0.00 0.00 1019.2
20260504215721 -17 164 14.5 14.5 0.00 0.00 0.00 1019.3
20260504215217 -17 154 11.3 12.9 0.00 0.00 0.00 1019.0
20260504214712 -17 170 12.9 16.1 0.00 0.00 0.00 1019.2
20260504214209 -17 116 8.0 9.7 0.00 0.00 0.00 1019.0
20260504213706 -17 147 14.5 16.1 0.00 0.00 0.00 1019.0
20260504213202 -17 170 11.3 12.9 0.00 0.00 0.00 1018.8
20260504212659 -17 167 14.5 17.7 0.00 0.00 0.00 1019.0
20260504212156 -17 146 12.9 17.7 0.00 0.00 0.00 1018.7
20260504211653 -17 156 9.7 11.3 0.00 0.00 0.00 1018.7
20260504211149 -17 175 16.1 16.1 0.00 0.00 0.00 1018.6
20260504210647 -17 138 16.1 20.9 0.00 0.00 0.00 1018.8
20260504210143 -17 173 14.5 14.5 0.00 0.00 0.00 1018.8
20260504205641 -17 166 11.3 12.9 0.00 0.00 0.00 1018.4
20260504205138 -17 150 16.1 20.9 0.00 0.00 0.00 1018.7
20260504204637 -17 147 14.5 17.7 0.00 0.00 0.00 1018.7
20260504204135 -17 152 22.5 33.8 0.00 0.00 0.00 1018.5
20260504203634 -17 139 12.9 20.9 0.00 0.00 0.00 1018.5
20260504203131 -17 164 19.3 22.5 0.00 0.00 0.00 1018.4
20260504202626 -17 188 22.5 29.0 0.00 0.00 0.00 1018.4
20260504202123 -17 181 17.7 22.5 0.00 0.00 0.00 1018.4
20260504201620 -17 165 11.3 12.9 0.00 0.00 0.00 1018.4
20260504201118 -17 151 22.5 27.4 0.00 0.00 0.00 1018.4
20260504200615 -17 142 22.5 27.4 0.00 0.00 0.00 1018.2
20260504200111 -17 139 14.5 16.1 0.00 0.00 0.00 1018.6
20260504195607 -17 105 12.9 16.1 0.00 0.00 0.00 1018.5
20260504195103 -17 155 19.3 24.1 0.00 0.00 0.00 1018.4
20260504194600 -17 138 17.7 20.9 0.00 0.00 0.00 1018.4
20260504194055 -17 133 17.7 20.9 0.00 0.00 0.00 1018.4
20260504193552 -17 142 17.7 22.5 0.00 0.00 0.00 1018.5
20260504193051 -17 163 14.5 17.7 0.00 0.00 0.00 1018.5
20260504192549 -17 160 9.7 11.3 0.00 0.00 0.00 1018.4
20260504192047 -17 181 16.1 22.5 0.00 0.00 0.00 1018.6
20260504191544 -17 147 11.3 14.5 0.00 0.00 0.00 1018.5
20260504191040 -17 158 19.3 24.1 0.00 0.00 0.00 1018.4
20260504190537 -17 194 22.5 27.4 0.00 0.00 0.00 1018.4
20260504190033 -17 186 19.3 20.9 0.00 0.00 0.00 1018.5
20260504185530 -17 181 14.5 14.5 0.00 0.00 0.00 1018.7
20260504185027 -17 204 16.1 17.7 0.00 0.00 0.00 1018.7
20260504184522 -17 182 19.3 22.5 0.00 0.00 0.00 1018.7
20260504184017 -17 127 16.1 20.9 0.00 0.00 0.00 1018.8
20260504183514 -17 156 17.7 20.9 0.00 0.00 0.00 1018.8
20260504183013 -17 146 17.7 20.9 0.00 0.00 0.00 1019.1
20260504182509 -17 141 9.7 12.9 0.00 0.00 0.00 1018.8
20260504182006 -17 96 14.5 16.1 0.00 0.00 0.00 1018.9
20260504181503 -17 229 8.0 9.7 0.00 0.00 0.00 1018.8
20260504181002 -17 134 11.3 12.9 0.00 0.00 0.00 1019.0
20260504180500 -17 138 14.5 17.7 0.00 0.00 0.00 1018.9
20260504175958 -17 80 9.7 17.7 0.00 0.00 0.00 1019.2
20260504175455 -17 94 16.1 20.9 0.00 0.00 0.00 1019.1
20260504174953 -17 120 11.3 12.9 0.00 0.00 0.00 1019.3
20260504174450 -17 168 17.7 24.1 0.00 0.00 0.00 1019.0
20260504173947 -17 193 14.5 20.9 0.00 0.00 0.00 1019.1
20260504173443 -17 139 12.9 17.7 0.00 0.00 0.00 1019.2
20260504172941 -17 142 9.7 12.9 0.00 0.00 0.00 1019.3
20260504172437 -17 154 19.3 22.5 0.00 0.00 0.00 1019.5
20260504171934 -17 129 16.1 20.9 0.00 0.00 0.00 1019.4
20260504171431 -17 162 20.9 27.4 0.00 0.00 0.00 1019.6
20260504170928 -17 167 17.7 25.7 0.00 0.00 0.00 1019.7
20260504170424 -17 176 17.7 22.5 0.00 0.00 0.00 1019.8
20260504160343 -17 148 19.3 24.1 0.00 0.00 0.00 1020.3
20260504150808 -17 116 12.9 12.9 0.00 0.00 0.00 1020.5